When you browse on this site, cookies collect data to enhance your experience and personalize the content and advertising you see.
Visit our Privacy Policy to learn more. By continuing to use the site, you agree to this use of cookies and data.
  • In Schweiz
  • Länderverzeichnis
  • Für 7 Tage
  • Wassertemperatur
  • Wetterkarte
  • Widgets
  • user-avatar
    Anmelden

    Stündliche Wetter Viedma

    Heute, 4 Juni, Donnerstag

    Zeit Temperatur Niederschläge Wind Luftdruck Luftfeuchtigkeit
    00:00 +5°C° 0 mm 6 m/S 764 mmHg 87%
    01:00 +5°C° 0 mm 6 m/S 764 mmHg 88%
    02:00 +5°C° 0 mm 6 m/S 763 mmHg 90%
    03:00 +5°C° 0 mm 6 m/S 763 mmHg 90%
    04:00 +5°C° 0 mm 6 m/S 762 mmHg 90%
    05:00 +5°C° 0 mm 6 m/S 762 mmHg 90%
    06:00 +5°C° 0 mm 6 m/S 762 mmHg 89%
    07:00 +5°C° 0 mm 7 m/S 762 mmHg 87%
    08:00 +6°C° 0 mm 7 m/S 761 mmHg 86%
    09:00 +7°C° 0 mm 8 m/S 761 mmHg 77%
    10:00 +10°C° 0 mm 9 m/S 761 mmHg 69%
    11:00 +12°C° 0 mm 10 m/S 761 mmHg 60%
    12:00 +12°C° 0 mm 10 m/S 760 mmHg 58%
    13:00 +13°C° 0 mm 9 m/S 760 mmHg 56%
    14:00 +15°C° 0 mm 9 m/S 759 mmHg 54%
    15:00 +13°C° 0 mm 8 m/S 759 mmHg 57%
    16:00 +12°C° 0 mm 7 m/S 759 mmHg 60%
    17:00 +12°C° 0 mm 5 m/S 759 mmHg 64%
    18:00 +12°C° 0 mm 5 m/S 758 mmHg 66%
    19:00 +10°C° 0 mm 5 m/S 758 mmHg 69%
    20:00 +10°C° 0 mm 5 m/S 758 mmHg 71%
    21:00 +10°C° 0 mm 5 m/S 758 mmHg 72%
    22:00 +9°C° 0 mm 5 m/S 758 mmHg 73%
    23:00 +9°C° 0 mm 5 m/S 758 mmHg 74%

    Morgen, 5 Juni, Freitag

    Zeit Temperatur Niederschläge Wind Luftdruck Luftfeuchtigkeit
    00:00 +9°C° 0 mm 6 m/S 758 mmHg 74%
    01:00 +9°C° 0 mm 6 m/S 758 mmHg 73%
    02:00 +9°C° 0 mm 7 m/S 758 mmHg 72%
    03:00 +9°C° 0 mm 7 m/S 758 mmHg 72%
    04:00 +8°C° 0 mm 7 m/S 757 mmHg 72%
    05:00 +8°C° 0 mm 7 m/S 757 mmHg 72%
    06:00 +8°C° 0 mm 7 m/S 757 mmHg 72%
    07:00 +8°C° 0 mm 7 m/S 758 mmHg 71%
    08:00 +8°C° 0 mm 7 m/S 758 mmHg 71%
    09:00 +9°C° 0 mm 8 m/S 758 mmHg 65%
    10:00 +11°C° 0 mm 8 m/S 758 mmHg 58%
    11:00 +13°C° 0 mm 9 m/S 758 mmHg 52%
    12:00 +15°C° 0 mm 8 m/S 758 mmHg 49%
    13:00 +16°C° 0 mm 8 m/S 757 mmHg 46%
    14:00 +17°C° 0 mm 8 m/S 757 mmHg 43%
    15:00 +16°C° 0 mm 7 m/S 757 mmHg 46%
    16:00 +14°C° 0 mm 6 m/S 757 mmHg 50%
    17:00 +13°C° 0 mm 5 m/S 757 mmHg 53%
    18:00 +13°C° 0 mm 5 m/S 757 mmHg 56%
    19:00 +12°C° 0 mm 5 m/S 757 mmHg 58%
    20:00 +12°C° 0 mm 5 m/S 758 mmHg 61%
    21:00 +10°C° 0 mm 5 m/S 758 mmHg 62%
    22:00 +10°C° 0 mm 5 m/S 758 mmHg 63%
    23:00 +10°C° 0 mm 5 m/S 758 mmHg 65%

    übermorgen, 6 Juni, Samstag

    Zeit Temperatur Niederschläge Wind Luftdruck Luftfeuchtigkeit
    00:00 +9°C° 0 mm 5 m/S 758 mmHg 68%
    01:00 +9°C° 0 mm 5 m/S 758 mmHg 70%
    02:00 +9°C° 0 mm 5 m/S 758 mmHg 73%
    03:00 +8°C° 0 mm 5 m/S 757 mmHg 74%
    04:00 +8°C° 0 mm 5 m/S 757 mmHg 76%
    05:00 +8°C° 0 mm 5 m/S 757 mmHg 77%
    06:00 +8°C° 0 mm 5 m/S 757 mmHg 76%
    07:00 +8°C° 0 mm 5 m/S 757 mmHg 75%
    08:00 +8°C° 0 mm 5 m/S 757 mmHg 74%
    09:00 +9°C° 0 mm 6 m/S 757 mmHg 67%
    10:00 +11°C° 0 mm 6 m/S 756 mmHg 60%
    11:00 +14°C° 0 mm 7 m/S 756 mmHg 53%
    12:00 +15°C° 0 mm 8 m/S 756 mmHg 52%
    13:00 +15°C° 0 mm 8 m/S 755 mmHg 52%
    14:00 +16°C° 0 mm 9 m/S 754 mmHg 51%
    15:00 +15°C° 0 mm 8 m/S 754 mmHg 58%
    16:00 +15°C° 0 mm 6 m/S 754 mmHg 64%
    17:00 +14°C° 0 mm 5 m/S 754 mmHg 71%
    18:00 +14°C° 0 mm 5 m/S 755 mmHg 72%
    19:00 +13°C° 0 mm 6 m/S 755 mmHg 74%
    20:00 +13°C° 0 mm 6 m/S 755 mmHg 75%
    21:00 +13°C° 0 mm 6 m/S 756 mmHg 75%
    22:00 +12°C° 0 mm 5 m/S 756 mmHg 75%
    23:00 +12°C° 0 mm 5 m/S 756 mmHg 75%

    7 Juni, Sonntag

    Zeit Temperatur Niederschläge Wind Luftdruck Luftfeuchtigkeit
    00:00 +11°C° 0 mm 4 m/S 757 mmHg 69%
    01:00 +11°C° 0 mm 4 m/S 757 mmHg 63%
    02:00 +11°C° 0 mm 4 m/S 757 mmHg 56%
    03:00 +10°C° 0 mm 3 m/S 757 mmHg 60%
    04:00 +10°C° 0 mm 3 m/S 757 mmHg 64%
    05:00 +9°C° 0 mm 2 m/S 757 mmHg 68%
    06:00 +9°C° 0 mm 2 m/S 758 mmHg 68%
    07:00 +10°C° 0 mm 1 m/S 758 mmHg 68%
    08:00 +9°C° 0 mm 1 m/S 758 mmHg 68%
    09:00 +11°C° 0 mm 1 m/S 759 mmHg 61%
    10:00 +13°C° 0 mm 1 m/S 759 mmHg 54%
    11:00 +14°C° 0 mm 1 m/S 759 mmHg 47%
    12:00 +15°C° 0 mm 2 m/S 759 mmHg 44%
    13:00 +15°C° 0 mm 2 m/S 758 mmHg 41%
    14:00 +16°C° 0 mm 3 m/S 758 mmHg 39%
    15:00 +14°C° 0 mm 3 m/S 758 mmHg 42%
    16:00 +14°C° 0 mm 2 m/S 757 mmHg 45%
    17:00 +13°C° 0 mm 2 m/S 757 mmHg 48%
    18:00 +12°C° 0 mm 2 m/S 757 mmHg 49%
    19:00 +12°C° 0 mm 2 m/S 757 mmHg 49%
    20:00 +10°C° 0 mm 2 m/S 757 mmHg 49%
    21:00 +10°C° 0 mm 3 m/S 757 mmHg 50%
    22:00 +10°C° 0 mm 3 m/S 756 mmHg 50%
    23:00 +10°C° 0 mm 3 m/S 756 mmHg 51%

    8 Juni, Montag

    Zeit Temperatur Niederschläge Wind Luftdruck Luftfeuchtigkeit
    00:00 +9°C° 0 mm 3 m/S 756 mmHg 52%
    01:00 +9°C° 0 mm 3 m/S 756 mmHg 53%
    02:00 +8°C° 0 mm 4 m/S 755 mmHg 54%
    03:00 +8°C° 0 mm 4 m/S 755 mmHg 58%
    04:00 +9°C° 0 mm 3 m/S 755 mmHg 62%
    05:00 +8°C° 0 mm 3 m/S 755 mmHg 65%
    06:00 +7°C° 0 mm 4 m/S 755 mmHg 65%
    07:00 +7°C° 0 mm 4 m/S 755 mmHg 64%
    08:00 +7°C° 0 mm 4 m/S 755 mmHg 63%
    09:00 +9°C° 0 mm 5 m/S 755 mmHg 55%
    10:00 +11°C° 0 mm 6 m/S 755 mmHg 47%
    11:00 +12°C° 0 mm 8 m/S 755 mmHg 39%
    12:00 +13°C° 0 mm 8 m/S 754 mmHg 37%
    13:00 +15°C° 0 mm 9 m/S 753 mmHg 36%
    14:00 +15°C° 0 mm 9 m/S 753 mmHg 34%
    15:00 +13°C° 0 mm 9 m/S 753 mmHg 36%
    16:00 +13°C° 0 mm 8 m/S 753 mmHg 38%
    17:00 +12°C° 0 mm 7 m/S 753 mmHg 40%
    18:00 +11°C° 0 mm 7 m/S 753 mmHg 44%
    19:00 +11°C° 0 mm 8 m/S 753 mmHg 47%
    20:00 +10°C° 0 mm 8 m/S 753 mmHg 51%
    21:00 +9°C° 0.1 mm 6 m/S 754 mmHg 57%
    22:00 +8°C° 0.1 mm 5 m/S 754 mmHg 63%
    23:00 +7°C° 0.1 mm 4 m/S 755 mmHg 69%

    9 Juni, Dienstag

    Zeit Temperatur Niederschläge Wind Luftdruck Luftfeuchtigkeit
    00:00 +7°C° 0 mm 4 m/S 755 mmHg 64%
    01:00 +7°C° 0 mm 5 m/S 755 mmHg 59%
    02:00 +7°C° 0 mm 6 m/S 756 mmHg 54%
    03:00 +7°C° 0 mm 6 m/S 756 mmHg 53%
    04:00 +6°C° 0 mm 5 m/S 756 mmHg 53%
    05:00 +6°C° 0 mm 5 m/S 756 mmHg 52%
    06:00 +5°C° 0 mm 5 m/S 756 mmHg 52%
    07:00 +4°C° 0 mm 6 m/S 756 mmHg 53%
    08:00 +4°C° 0 mm 6 m/S 756 mmHg 53%
    09:00 +5°C° 0 mm 7 m/S 756 mmHg 49%
    10:00 +8°C° 0 mm 7 m/S 756 mmHg 45%
    11:00 +9°C° 0 mm 8 m/S 756 mmHg 40%
    12:00 +10°C° 0 mm 8 m/S 755 mmHg 39%
    13:00 +11°C° 0 mm 9 m/S 754 mmHg 37%
    14:00 +11°C° 0 mm 9 m/S 753 mmHg 36%
    15:00 +11°C° 0 mm 8 m/S 753 mmHg 37%
    16:00 +10°C° 0 mm 8 m/S 753 mmHg 38%
    17:00 +10°C° 0 mm 7 m/S 753 mmHg 40%
    18:00 +9°C° 0 mm 8 m/S 753 mmHg 41%
    19:00 +9°C° 0 mm 8 m/S 753 mmHg 42%
    20:00 +8°C° 0 mm 9 m/S 752 mmHg 43%
    21:00 +9°C° 0 mm 8 m/S 753 mmHg 45%
    22:00 +9°C° 0 mm 8 m/S 753 mmHg 47%
    23:00 +8°C° 0 mm 7 m/S 753 mmHg 49%
    Mehr zeigen